Regional Weather Roundup
Issued by NWS Wakefield, VA

Home | Current Version | Previous Version | Graphics & Text | Print | Product List | Glossary On
Versions: 1 2 3 4 5 6 7 8 9 10 11 12 13 14 15 16 17 18 19 20 21 22 23 24 25 26 27 28 29 30 31 32 33 34 35 36 37 38 39 40 41 42 43 44 45 46 47 48 49 50
553
ASUS41 KAKQ 291015
RWRAKQ

REGIONAL WEATHER ROUNDUP
NATIONAL WEATHER SERVICE WAKEFIELD VA
600 AM EDT SUN MAY 29 2016

Note: "fair" indicates few or no clouds below 12,000 feet with no
significant weather and/or obstructions to visibility. * = Denotes
station may not report precipitation (e.g., rain,snow,etc.),
thunder or fog.

VAZ042-051-052>054-056-291100-
NORTHERN VIRGINIA

CITY           SKY/WX    TMP DP  RH WIND       PRES   REMARKS
WASH NATIONAL  MOCLDY    67  62  84 CALM      30.15R
DULLES         MOCLDY    64  61  90 SE5       30.14R
FORT BELVOIR   FAIR      61  60  96 CALM      30.14S
QUANTICO       FAIR      65  62  90 NW5       30.15R
FREDERICKSBRG* FAIR      62  62 100 CALM      30.14R
STAFFORD*      FAIR      56  55  95 CALM      30.18S
WARRENTON      FAIR      61  57  86 CALM      30.14R FOG
CULPEPER*      FAIR      62  62 100 CALM      30.15R FOG
MANASSAS*      FAIR      61  61 100 CALM      30.14S
LEESBURG*      FAIR      63  63 100 CALM      30.15R
WINCHESTER     FAIR      64  61  88 CALM      30.13S
FRONT ROYAL*   FAIR      61  59  94 CALM      30.13R
LURAY*         FAIR      59  59 100 CALM      30.15R FOG
$$

VAZ048-049-060>072-079>083-291100-
CENTRAL AND SOUTH CENTRAL VIRGINIA

CITY           SKY/WX    TMP DP  RH WIND       PRES   REMARKS
RICHMOND       FAIR      63  62  97 CALM      30.13S
CHESTERFIELD*  FAIR      61  50  67 CALM      30.15R
PETERSBURG*    FAIR      60  60 100 CALM      30.13S
HANOVER        FAIR      61  58  90 CALM      30.15R
TAPPAHANNOCK*  FAIR      61  61 100 CALM      30.15R
QUINTON*       FAIR      60  60  99 MISG      30.13S
CHARLOTTSVILLE FAIR      63  60  90 W3        30.14R
GORDONSVILLE*  FAIR      59  59  99 CALM      30.14R
ORANGE*        FAIR      61  61 100 CALM      30.16R
LOUISA*          N/A     61  61 100 CALM      30.13S FOG
BUMPASS*       FAIR      60  59  99 CALM      30.14R
FARMVILLE*     FAIR      62  62 100 CALM      30.12S
CREWE*         FAIR      59  59 100 CALM      30.13S
FORT PICKETT*  NOT AVBL
CHASE CITY*    FAIR      67  65  94 CALM      30.13R
CLARKSVILLE*   FAIR      68  68 100 CALM      30.12R
SOUTH HILL*    FAIR      64  64  99 CALM      30.18S
LAWRENCEVILLE* FAIR      65  65 100 CALM      30.12S
EMPORIA*       CLOUDY    63  63 100 CALM      30.13F
$$

VAZ088>098-291100-
SOUTHEAST VIRGINIA

CITY           SKY/WX    TMP DP  RH WIND       PRES   REMARKS
NORFOLK        FOG       70  68  93 E5        30.12S VSB 3/4
VIRGINIA BEACH FOG       74  68  81 E3        30.12S VSB 1/4
NORFOLK NAVAL  FAIR      70  68  93 E6        30.14R FOG
WEST POINT*    FAIR      60  59  97 CALM      30.15S
SALUDA*        FAIR      64  64  99 CALM      30.13S
NEWPORT NEWS   FOG       65  65 100 CALM      30.13S VSB 1/4
LANGLEY AFB    MOCLDY    70  70 100 SE5       30.13R FOG
FORT EUSTIS    FAIR      67  62  82 CALM      30.11S
WILLIAMSBURG*  FAIR      66  66 100 CALM      30.14R
HR EXEC AP*    CLOUDY    66  63  88 CALM      30.14S
FRANKLIN*      FOG       66  66  98 CALM      30.13R VSB 1/2
US460-WAKEFLD  FOG       63  63 100 CALM      30.12S VSB 1/4
$$

VAZ020-022-025-037-045-291100-
WEST CENTRAL AND SOUTHWEST VIRGINIA

CITY           SKY/WX    TMP DP  RH WIND       PRES   REMARKS
STAUNTON*      FAIR      59  58  97 CALM      30.18S
WAYNESBORO*    FAIR      61  58  90 SW7       30.17R
HOT SPRINGS VA MOCLDY    62  56  80 CALM      30.24S
LYNCHBURG      FAIR      64  61  90 CALM      30.16R
DANVILLE       FAIR      65  63  93 CALM      30.13R
SOUTH BOSTON*  FAIR      65  63  95 CALM      30.12S
MARTINSVILLE   LGT RAIN  60  60  99 CALM      30.17R
ROANOKE        CLOUDY    65  62  90 W3        30.18R
BLACKSBURG     CLOUDY    62  60  93 CALM      30.22R
DUBLIN*        CLOUDY    64  62  95 CALM      30.21R
MARION*        MOCLDY    61  59  94 CALM      30.23S
HILLSVILLE*    LGT RAIN  61  58  87 CALM      30.21R
RICHLANDS*     CLOUDY    64  62  94 CALM      30.20R
WISE*          FAIR      63  52  67 CALM      30.21S
ABINGDON*      CLOUDY    66  58  76 E8        30.18R
$$

MDZ021>025-VAZ099-100-291100-
SOUTHERN MARYLAND AND THE DELMARVA PENINSULA

CITY           SKY/WX    TMP DP  RH WIND       PRES   REMARKS
PATUXENT RIVER MOCLDY    61  59  93 CALM      30.14R
BAY BRIDGE APT PTCLDY    66  66 100 CALM      30.15R
LEONARDTOWN    PTCLDY    61  59  94 CALM      30.16R
DOVER          CLEAR     61  61 100 E1        30.15R
GEORGETOWN     CLEAR     57  55  93 CALM      30.16R
EASTON         PTCLDY    63  63 100 CALM      30.19R
CAMBRIDGE        N/A     59  59 100 CALM      30.14S
SALISBURY      CLOUDY    59  57  93 CALM      30.15R
OCEAN CITY     MOCLDY    64  63  96 CALM      30.15R
WALLOPS ISLAND FOG       67  67 100 CALM      30.15R VSB 1
ACCOMACK*      MOCLDY    68  64  88 CALM      30.14S FOG
$$

NCZ012>017-030>032-291100-
NORTH CENTRAL AND EASTERN NORTH CAROLINA

CITY           SKY/WX    TMP DP  RH WIND       PRES   REMARKS
ROANOKE RAPIDS FAIR      63  63 100 CALM      30.11S
RALEIGH        MOCLDY    69  67  93 NE5       30.10S
ELIZABETH CITY CLOUDY    71  70  96 E5        30.12R
AHOSKIE*       FOG       65  65  97 CALM      30.11S VSB 3/4
EDENTON*       CLOUDY   N/A N/A N/A E3        30.12R
CURRITUCK*     CLOUDY    72  72 100 CALM      30.12S
KILL DEVIL HLS CLOUDY    70  70 100 E3        30.11R
MANTEO         NOT AVBL
CAPE HATTERAS  CLEAR     76  72  87 SE13      30.09R
TARBORO*       CLOUDY    69  68  96 CALM      30.11R
GOLDSBORO      CLOUDY    72  72 100 NE6       30.06R
WASHINGTON     CLOUDY    69  69  99 NE6       30.09R FOG
GREENVILLE     CLOUDY    70  70 100 NE5       30.10F
NEW BERN       PTCLDY    72  70  93 NE6       30.08S
WILMINGTON     CLOUDY    73  71  93 NE5       30.03R
$$

VAZ048-291100-
ELSEWHERE

CITY           SKY/WX    TMP DP  RH WIND       PRES   REMARKS
HARRISBURG PA  PTCLDY    70  61  73 S7        30.12S
BALTIMORE      MOCLDY    61  59  93 CALM      30.15R
ANNAPOLIS      CLEAR     64  63  96 CALM      30.14R
ANDREWS AFB    FAIR      60  58  92 E2        30.14S
PHILADELPHIA   MOCLDY    66  57  72 CALM      30.16R
HENDERSON NC   MOCLDY    65  64  95 CALM      30.12S
GREENSBORO     CLOUDY    68  65  90 N3        30.12R
ROCKY MOUNT    CLOUDY    69  68  96 NE3       30.10S
$$

VAZ100-291100-
MARINE

STATION/POSITION TIME  TEMP    WIND        PRES    WAVE   SWELL
                       AIR SEA DIR/SP/G            HT/PER HT/PER
                 (UTC) (F)     (DEG/KT/KT) (MB)    (FT/S) (FT/S)
BRANDYWINE LGT   0900   65     170/  4/  4 1021.0R
CAPE MAY NJ      0900   62 68  110/  1/  2 1020.7S
LEWES DE         0900   63 64   CALM  /  2 1020.8R
15NM E FENWICK I 0950   64 63              1021.1R   2/ 8
OCEAN-CITY-INLET 0900   63 58  150/  3/  4 1021.0S
WACHAPREAGUE VA  0900   70 75  170/  2/  3 1019.9F
THOMAS POINT MD  1000   67 68  260/  2/  2 1022.3R
GOOSES REEF MD   1000   68 68  190/  2/  4 1021.7R   0
COVE POINT MD    0900   66     190/  6/  6 1020.9R
SOLOMONS ISLAND  0900   65 67  110/  2/  2   N/A
BISHOPS HEAD MD  0900   69 73  100/  4/  5 1020.5S
PINEY POINT MD   0900          130/  4/  4   N/A
POTOMAC MD       1000   68 70  100/  6/  6 1019.6R   0
CAMBRIDGE MD     0900   63 68   CALM  /  1 1019.6R
LEWISETTA VA     0900   69 65  130/  3/  3 1019.8F
RAPPAHANNOCK LGT 0900          120/  4/  5 1020.7S
STINGRAY PT      1000   70 69  160/  2/  2 1020.7R   0
YORK RVR RNG VA  0900   71     150/  5/  6 1019.4S
YORKTOWN VA      0900   69 71   CALM  /  1 1019.8R
JAMESTOWN VA     1000   70 74  170/  2/  4   N/A     0
DOMINION TERM VA 0900   71      70/  4/  5 1020.0R
KIPTOPEKE VA     0900      70  110/  6/  8   N/A
CHES BAY BRIDGE  0900   69 63  100/  2/  4 1020.0R
CAPE HENRY VA    0900   69     130/  5/  5   N/A
CHESAPEAKE LGHT  0900   70     110/ 11/ 11 1020.8R
WILLOUBY STN VA  0900   70     100/  5/  6 1021.0R
CAPE HENRY BUOY  0912      68                N/A     3/ 8
1ST LANDING BUOY 1000   69 68  120/  4/  4 1020.4R   1/ 4
CAPE CHARLES BUO 0926      68                N/A     3/ 8   2/ 8
OFFSHORE WE BUOY 0921      70                N/A     3/ 8   3/ 8
64NM E OF VA BCH 0950   69 64  100/  4/  4 1020.3R   4/ 8   3/ 8
DUCK PIER NC     0900   68 61  100/  5/  6 1018.9S
44100 DUCK FRF   0924      69                N/A     3/ 8
44056 DUCK FRF   0911      67                N/A     2/ 8
OREGON INLET NC  0900   71 74   90/  5/  6 1019.1F
HATTERAS NC      0900   76 76  120/  6/  9 1018.2R
DIAMOND SHLS NC  0950   78 79  140/ 16/ 19 1018.7R   5/ 8   3/ 8
CAPE LOOKOUT NC1F1C2F2C3F3C4F4C5F5C6F6C7F7C8M1C9!



USA.gov is the U.S. government's official web portal to all federal, state and local government web resources and services.